Location: Asheville, NC
(35.6000°N, 82.5500°W)
Time: 01:35:59
(UTC-05:00)

Iridium 19 - Visible Passes

Search period start: 21 January 2018 00:00
Search period end: 31 January 2018 00:00
Orbit: 221 x 605 km, 86.4° (Epoch: 20 January)

Date Brightness Start Highest point End Pass type
(mag) Time Alt. Az. Time Alt. Az. Time Alt. Az.
21 Jan 7.3 06:53:19 10° ESE 06:54:33 14° E 06:55:52 10° NE visible
21 Jan 6.8 18:09:34 10° NE 18:12:26 18° E 18:15:23 10° SE visible
21 Jan 7.4 19:41:58 10° NNW 19:45:29 29° W 19:49:11 10° SSW visible
22 Jan 5.3 18:54:06 10° N 18:58:12 81° E 19:02:29 10° S visible
23 Jan 6.8 06:50:43 10° SE 06:52:33 22° E 06:54:35 10° NNE visible
23 Jan 7.9 19:40:01 10° NNW 19:43:15 23° W 19:46:36 10° SW visible
24 Jan 5.6 18:51:06 10° N 18:55:15 78° W 18:59:31 10° S visible
25 Jan 6.0 06:46:49 10° SSE 06:48:59 33° E 06:51:27 10° NNE visible
25 Jan 8.3 19:36:31 10° NW 19:39:25 18° W 19:42:21 10° SW visible
26 Jan 6.0 18:46:33 10° N 18:50:41 62° W 18:54:52 10° S visible
27 Jan 5.3 06:41:28 10° SSE 06:43:52 48° E 06:46:36 10° NNE visible
27 Jan 8.5 19:31:29 10° NW 19:33:59 15° W 19:36:28 10° WSW visible
28 Jan 6.4 18:40:27 10° NNW 18:44:33 52° W 18:48:37 10° SSW visible
29 Jan 4.8 06:34:36 10° S 06:37:10 65° E 06:40:07 10° N visible
29 Jan 8.6 19:24:54 10° NW 19:26:57 13° W 19:28:59 10° WSW visible
30 Jan 8.0 05:46:10 10° ESE 05:47:12 12° E 05:48:16 10° ENE visible
30 Jan 6.7 18:32:46 10° NNW 18:36:47 45° W 18:40:44 10° SSW visible
